Location: Nag� el Ma?a??a
(24.0667°N, 32.8833°E)
Time: 17:13:23
(UTC+00:00)

Cosmos 2228 Rocket - Pass Details

Date: 25 September 2021
Orbit: 618 x 652 km, 82.5° (Epoch: 16 October)

Event Time Altitude Azimuth Distance (km) Brightness Sun altitude
Exits shadow 02:20:47 19° 207° (SSW) 1,505 4.7 -18.5°
Maximum altitude 02:23:46 51° 276° (W) 808 3.2 -17.8°
Drops below altitude 10° 02:28:12 10° 353° (N) 2,049 5.7 -16.8°
Sets 02:30:31 0° 358° (N) 2,965 6.6 -16.2°
